RH
51 52 55 58 60 63 64 64 68 76 79 79 79 76 75 76 76 75 74 76 80 83 82 81 80 78 75 71 67 65 69 74 77 76 71 66 60 53 48 46 45 46 48 47 44 38 32 29 26 22 20 21 27 33 42 50 48 41 39 41 49 58 66 83 99 100 98 100 99 99 99 99 101 101 102 99 95 94 81 64 59 56 57 67 67 47 33
54 54 56 59 61 62 64 64 68 77 81 82 84 84 80 77 77 81 84 84 84 83 82 84 86 82 78 74 69 68 73 75 75 73 69 66 63 56 50 47 46 46 48 49 48 43 36 32 28 25 22 20 24 29 35 45 51 49 45 45 53 61 68 82 93 93 97 100 95 95 98 100 99 98 101 101 97 94 88 81 71 52 45 57 58 39 32
56 56 58 62 65 65 65 68 75 80 80 80 81 83 83 79 75 78 81 83 84 84 84 87 90 87 82 76 71 70 75 79 77 73 69 66 65 59 52 49 47 48 49 50 50 47 42 36 31 29 25 21 21 23 29 39 47 52 51 47 55 67 72 79 86 89 95 100 95 92 94 98 99 98 99 101 99 98 99 99 94 80 67 61 53 43 42
55 56 60 64 68 73 76 80 84 84 82 81 80 80 82 83 82 82 80 81 83 84 87 93 96 92 85 77 72 69 73 79 80 75 71 68 64 60 56 52 50 50 50 51 51 50 47 41 35 32 29 24 21 20 25 37 45 51 53 50 54 66 72 77 82 85 91 98 100 98 96 97 101 101 100 100 100 100 100 101 101 99 90 75 65 58 53
54 55 57 60 66 79 90 91 88 85 84 84 82 80 82 82 83 86 84 84 85 82 85 94 97 94 88 80 75 71 70 75 79 77 73 68 64 61 57 53 53 53 52 52 53 52 51 47 40 36 33 28 25 21 22 34 43 47 52 54 56 63 72 79 80 78 81 88 96 100 100 101 102 101 100 100 101 100 100 101 100 100 97 87 83 79 65
53 54 54 56 64 80 94 95 90 86 84 85 83 81 82 80 79 82 82 83 86 84 87 95 97 95 91 86 81 76 72 74 79 80 76 68 63 62 58 53 52 54 54 54 54 54 54 52 45 40 37 33 30 26 23 31 44 48 50 54 59 66 74 79 80 79 77 81 92 98 98 101 101 99 101 102 100 100 100 100 99 100 101 97 96 98 86
58 58 61 66 73 83 93 96 93 88 84 86 86 83 83 80 76 75 75 76 81 85 91 97 97 95 92 90 88 84 80 78 79 82 79 70 63 61 60 55 51 54 56 56 56 56 56 56 51 44 40 37 35 33 28 30 40 47 50 51 54 63 69 69 76 89 89 84 89 90 89 96 101 101 102 100 99 101 98 98 101 100 99 98 98 102 99
74 75 78 82 84 87 93 97 97 90 85 86 87 84 83 82 75 68 66 68 74 83 92 98 98 93 90 91 91 91 90 86 84 84 82 74 67 63 60 56 51 53 57 56 56 57 56 57 56 50 44 41 42 41 36 34 36 40 50 57 56 61 67 61 62 83 92 83 81 84 84 88 92 98 103 100 99 100 95 96 101 95 90 95 99 100 101
88 89 91 91 90 90 94 99 99 93 86 86 86 84 82 80 71 63 61 64 71 79 86 91 94 91 87 88 90 92 95 93 90 89 84 76 72 68 62 56 51 51 56 56 56 57 57 56 56 53 48 46 47 47 44 45 45 40 43 53 55 57 65 61 52 63 79 77 73 78 84 88 89 95 102 102 100 97 93 95 99 93 90 98 101 99 100
92 93 95 97 96 95 97 100 100 94 86 85 87 85 80 76 71 65 63 66 73 80 81 84 92 94 87 84 86 89 95 98 95 95 91 83 76 72 64 57 52 51 54 56 55 56 56 56 55 54 51 49 51 52 49 51 54 51 46 47 47 45 52 59 54 53 68 76 72 72 82 92 98 99 99 102 102 96 92 96 100 98 96 100 101 99 99
92 91 92 95 98 99 99 99 99 94 87 85 87 84 77 73 71 67 67 72 77 80 77 78 89 97 93 87 85 85 92 99 99 98 98 91 81 74 66 59 55 52 52 53 56 55 55 54 54 55 54 53 56 59 55 52 54 57 56 52 48 41 39 50 54 52 63 74 73 77 90 97 101 102 99 100 103 98 92 93 97 100 100 98 99 101 100
91 88 87 89 92 97 99 98 97 94 89 87 86 83 77 74 72 67 65 72 77 78 75 72 80 94 99 95 89 84 87 96 100 98 99 96 86 76 68 61 57 55 52 53 56 56 55 55 54 55 54 55 63 68 63 59 59 60 57 55 58 57 49 51 61 63 69 75 73 78 91 93 95 100 100 99 99 95 90 86 88 97 102 97 96 99 100
86 84 83 83 87 95 99 98 97 94 91 89 86 82 79 77 75 71 67 68 72 76 75 71 73 87 97 97 92 87 84 89 97 100 99 97 89 79 71 64 60 58 54 54 56 55 56 57 55 55 56 58 69 78 71 62 61 61 58 56 63 72 67 65 75 77 74 80 85 84 83 83 86 93 95 94 94 91 88 82 81 93 100 93 91 99 101
85 83 79 77 82 92 99 100 98 95 92 90 87 85 85 82 76 72 67 64 64 69 73 73 75 82 90 94 92 88 82 81 91 100 99 96 92 83 75 68 63 60 57 56 57 55 56 59 57 58 60 59 64 74 71 65 64 66 66 60 57 66 73 76 88 91 80 80 90 91 89 91 93 90 85 84 86 89 90 82 77 88 97 91 88 96 100
85 81 75 73 78 89 98 100 99 97 94 89 88 90 91 86 79 71 64 59 59 65 72 75 78 81 86 90 88 83 81 80 87 96 97 95 94 87 79 73 68 63 61 59 58 56 56 59 59 61 62 60 63 68 63 60 65 67 68 65 56 60 74 79 82 86 82 79 82 85 87 92 94 93 91 90 90 91 87 78 76 86 92 87 82 85 92
82 78 75 76 81 89 98 99 97 97 95 91 92 95 92 85 78 71 65 60 58 64 73 78 82 84 88 91 86 80 80 82 88 94 92 90 93 89 82 79 74 67 63 61 60 58 57 58 59 62 63 60 61 64 58 58 65 60 58 67 67 62 68 68 61 64 75 80 78 80 88 91 89 92 97 96 89 81 73 72 80 86 84 78 73 73 82
81 80 78 81 86 92 97 97 96 96 95 93 96 96 88 82 79 74 71 67 60 65 75 79 82 85 87 89 86 80 80 84 89 94 91 87 91 92 86 83 79 71 67 64 60 58 59 60 57 59 63 59 56 59 60 62 64 54 51 69 77 65 58 58 55 57 68 72 68 69 78 86 90 93 94 89 78 68 67 74 75 69 67 67 67 66 72
85 84 84 85 89 92 94 95 96 96 96 97 98 93 84 81 82 78 75 71 65 67 77 81 82 84 85 85 85 84 86 90 92 94 92 87 88 89 87 85 80 74 71 68 63 58 58 60 57 54 57 57 54 58 62 60 57 55 56 64 72 69 60 56 60 63 59 55 58 64 67 72 79 79 69 63 59 57 65 70 59 48 51 59 64 68 69
89 90 90 90 92 94 95 96 98 97 97 98 98 94 87 84 84 81 78 76 71 69 75 80 83 86 86 88 91 91 91 95 98 97 95 93 90 87 86 86 82 78 74 71 66 60 57 58 57 54 54 55 53 55 60 59 57 58 60 60 66 72 68 62 65 64 52 44 54 68 72 72 75 73 62 61 67 64 56 48 38 40 50 55 62 69 69
90 91 93 95 97 98 96 96 99 98 96 95 95 96 94 87 82 81 79 77 75 72 75 80 83 85 87 91 95 95 94 97 100 96 92 94 94 90 87 86 86 85 81 74 68 63 60 59 57 53 53 54 52 51 56 62 60 58 63 68 70 72 72 71 68 59 54 56 57 60 66 69 67 65 60 62 67 57 38 28 29 41 52 55 59 67 67
91 93 96 99 101 100 96 96 100 98 95 95 94 94 94 88 81 80 78 77 76 74 76 82 84 84 88 91 91 92 93 94 94 90 87 91 95 93 87 84 84 87 84 78 72 66 62 60 57 53 51 50 49 49 54 61 62 60 61 64 65 68 74 75 70 61 64 71 65 62 72 73 59 49 44 40 39 36 28 25 28 35 45 50 54 61 65
96 98 100 100 100 98 95 98 101 97 93 95 93 88 88 88 84 81 82 84 85 79 75 80 84 84 87 91 90 88 88 88 87 87 88 92 94 92 88 83 84 88 86 80 75 69 64 60 56 52 48 44 47 51 52 54 58 59 58 54 55 65 70 67 66 68 69 68 60 59 66 63 47 40 38 34 32 33 32 31 30 32 40 52 56 57 60
100 100 100 100 100 98 97 99 99 93 89 92 90 83 81 82 80 81 85 90 93 88 79 78 83 85 86 87 88 87 84 82 84 87 91 93 92 89 88 85 85 88 86 81 76 70 67 63 56 51 45 39 42 51 53 51 51 53 58 59 54 57 66 69 71 74 73 67 60 56 54 50 43 39 37 33 32 34 32 30 30 31 36 49 59 56 51
99 100 100 101 99 96 97 98 96 91 90 92 89 79 73 72 72 76 80 84 90 92 87 81 81 83 84 80 78 82 83 83 86 89 90 89 87 85 87 87 86 87 87 83 76 71 70 66 58 52 46 38 40 47 49 50 51 48 53 60 56 56 72 82 79 75 72 67 63 59 56 52 46 40 36 32 32 34 34 29 27 29 31 41 54 55 48
98 100 100 101 99 97 97 97 95 93 94 94 88 76 68 67 69 72 75 76 80 86 87 84 78 77 81 80 74 77 83 85 87 89 89 88 86 83 83 84 85 87 86 81 75 71 71 68 59 52 45 38 40 45 42 44 50 45 41 47 52 58 71 73 66 67 68 62 58 57 56 52 45 38 36 35 34 36 39 36 32 33 34 37 46 53 51
100 101 100 101 101 98 96 96 96 94 93 93 90 80 72 71 71 72 73 76 79 81 85 89 83 77 83 88 83 80 81 81 81 82 85 88 87 83 81 81 83 86 85 79 74 71 70 67 60 52 46 40 39 41 39 39 40 33 31 40 47 54 62 60 53 55 56 50 48 50 53 54 51 45 41 39 37 36 37 35 31 32 36 39 43 49 51
100 100 100 102 101 98 97 96 94 92 92 94 93 87 81 79 77 74 73 76 82 84 87 92 87 80 84 93 90 83 80 78 77 78 82 86 86 82 81 82 83 85 83 77 73 71 68 65 59 52 47 41 38 40 41 40 36 29 30 36 38 41 48 49 46 45 42 40 40 41 40 42 44 41 38 36 33 32 31 30 28 27 33 38 39 41 44
100 100 102 103 101 100 99 95 91 91 93 94 93 92 90 85 81 78 75 76 83 88 89 92 90 85 86 93 91 85 80 78 77 76 79 82 82 82 83 85 84 83 81 77 73 70 67 64 59 53 48 42 40 42 41 36 31 28 26 25 24 28 34 36 37 38 36 34 35 34 32 32 33 32 31 29 26 26 27 27 26 24 28 36 42 42 42
99 100 102 103 102 100 99 96 95 93 91 90 94 97 94 89 87 86 83 81 83 86 88 93 96 93 90 92 93 89 84 79 75 74 74 77 80 83 85 87 86 84 80 76 72 69 67 64 59 54 50 44 41 42 40 33 27 24 23 20 20 23 27 27 27 28 27 28 30 29 27 28 27 25 24 23 22 23 22 22 24 24 24 32 46 55 52
99 100 102 102 101 99 98 99 98 93 87 90 96 97 94 94 97 94 88 83 83 83 84 90 98 99 94 92 94 92 86 80 75 71 71 74 78 82 85 86 85 81 76 72 70 68 66 64 60 56 52 47 41 37 35 31 25 21 20 20 20 20 21 20 18 17 18 24 27 25 23 22 21 20 21 20 18 18 18 18 19 21 22 25 36 54 62
100 101 100 98 95 94 96 98 98 95 94 98 100 96 93 98 100 94 87 84 83 82 83 87 96 100 95 91 94 94 87 80 75 71 71 73 74 78 83 84 81 75 70 67 68 67 65 64 62 57 52 47 41 34 30 27 25 22 19 18 18 20 20 18 15 14 15 18 21 22 22 21 18 16 17 17 16 16 17 17 18 19 22 22 25 39 57
100 99 97 96 95 97 98 98 98 100 101 100 95 88 87 90 91 88 86 86 83 81 82 85 93 98 93 88 93 96 89 80 75 74 74 75 75 78 82 82 76 70 67 67 67 66 64 63 62 58 53 47 39 32 27 25 24 24 22 18 17 18 18 16 16 16 16 16 17 19 22 23 21 18 15 14 15 15 16 19 23 25 26 26 24 30 46
101 100 99 100 99 99 99 99 100 102 100 95 90 88 88 90 91 88 88 87 85 83 83 84 91 97 91 82 87 95 91 81 77 77 78 79 79 79 82 80 72 65 64 67 66 64 63 63 62 60 56 47 37 30 26 23 21 23 24 21 19 20 20 18 17 17 17 15 14 14 15 17 18 18 17 15 15 15 15 17 22 28 32 33 30 28 37
101 100 100 100 98 97 98 99 99 99 97 95 95 97 98 100 97 90 86 86 85 86 87 87 92 97 91 80 82 93 92 82 77 79 84 87 84 80 77 76 72 66 63 65 66 63 62 63 63 61 56 46 34 28 25 21 19 22 23 22 21 22 22 20 19 17 15 14 14 13 13 13 13 14 17 17 16 16 17 17 19 26 34 38 37 32 32
100 100 100 100 99 99 100 98 97 98 98 99 100 100 101 100 95 86 82 83 85 88 90 90 93 97 90 81 84 93 91 82 78 80 84 87 86 83 76 71 69 66 64 65 65 62 60 61 61 59 54 41 30 26 25 22 20 19 20 21 21 20 18 17 17 16 15 13 13 13 13 13 14 14 16 18 19 19 20 19 19 23 29 36 40 39 35
100 99 100 100 100 98 97 97 99 101 100 100 100 100 100 99 93 85 83 85 87 90 92 95 99 99 90 83 86 90 88 85 84 84 84 82 81 80 75 69 66 64 61 62 62 58 55 56 58 55 47 33 25 24 24 23 21 19 18 17 17 15 14 14 14 15 16 15 14 13 12 13 14 14 15 18 20 22 23 22 22 23 27 34 40 41 39
100 100 100 99 97 94 94 98 102 102 100 100 100 100 101 100 95 91 90 90 90 92 95 99 103 100 90 87 90 90 89 89 88 86 87 85 80 75 72 68 64 60 56 57 58 55 52 55 57 53 40 26 22 23 23 20 20 19 17 17 15 14 14 13 12 13 15 15 14 14 14 13 14 14 15 16 18 20 22 23 23 23 25 30 38 43 42
100 97 93 92 92 91 93 99 102 100 99 101 100 100 101 100 96 94 94 91 91 94 98 101 103 97 90 92 96 94 91 92 90 88 88 86 79 74 69 65 61 57 54 55 55 52 50 52 52 44 33 24 24 26 22 19 19 18 16 16 15 13 13 14 13 12 13 13 13 14 15 16 17 16 16 17 19 20 22 23 23 24 23 24 31 38 43
98 93 90 93 95 94 94 99 102 100 100 101 100 101 101 98 93 91 90 89 92 97 100 101 101 96 92 96 100 97 95 96 95 93 90 86 80 74 70 67 62 56 54 57 57 53 52 54 48 36 26 24 28 28 22 18 19 19 16 16 16 15 14 13 13 12 11 11 12 13 13 15 16 16 16 17 18 20 21 22 24 25 25 24 25 30 36
98 97 97 98 94 90 92 99 103 101 101 101 100 100 99 95 90 87 85 87 95 101 102 101 101 97 94 97 101 100 99 100 99 95 91 86 81 76 74 73 67 58 55 60 59 53 53 54 47 33 24 23 25 26 22 18 19 18 16 16 16 14 13 13 12 12 13 12 12 13 13 14 14 14 14 14 14 15 17 19 21 24 26 27 27 27 29
101 101 100 94 86 83 90 99 102 101 100 101 100 100 97 92 88 86 87 92 100 102 100 100 101 99 97 99 101 101 101 101 99 96 92 87 81 77 76 74 68 59 58 62 61 55 52 50 40 30 24 22 20 18 17 17 17 16 15 15 14 13 13 13 12 12 13 13 13 13 14 14 14 14 13 13 12 12 13 14 15 19 22 25 28 29 29
102 101 98 94 92 93 96 99 100 101 101 101 100 97 92 87 86 89 93 99 102 100 96 97 101 101 100 101 101 100 101 102 100 97 93 88 81 75 72 70 66 61 60 61 59 57 53 45 33 26 25 22 18 16 16 16 16 15 14 13 13 12 12 12 13 13 13 13 14 14 15 14 14 13 12 12 11 10 10 10 11 12 15 18 22 27 29
101 101 99 98 99 101 99 97 97 96 94 94 94 93 92 91 93 97 99 101 103 101 96 95 99 101 100 101 101 99 100 102 99 94 92 89 81 71 65 63 63 62 61 59 58 56 50 39 29 25 25 23 19 18 18 17 16 15 14 13 12 12 13 13 13 14 15 15 15 15 15 15 14 13 12 11 10 9 8 8 8 8 10 11 14 19 24
100 100 100 100 100 100 98 95 89 84 84 88 93 96 99 100 100 101 101 101 101 101 98 97 99 101 100 100 100 100 102 103 100 95 91 85 77 68 63 60 60 60 60 59 59 54 45 34 27 24 23 20 19 18 18 17 16 15 14 13 12 13 13 14 14 15 16 17 17 16 15 14 13 12 10 10 9 8 8 7 7 7 6 7 9 11 16
100 99 100 100 100 99 96 88 79 77 85 94 98 99 101 102 100 100 102 101 99 99 99 99 100 100 100 100 100 100 101 102 100 96 88 78 70 66 64 61 60 60 61 61 58 50 38 30 27 24 21 19 18 18 17 16 15 15 14 14 14 14 14 15 16 17 17 17 17 17 16 14 13 11 10 9 8 8 7 7 7 7 6 6 6 7 8
99 100 101 99 97 94 88 79 76 83 94 100 101 100 101 101 100 101 102 101 99 98 99 100 100 100 100 100 100 101 102 100 97 92 85 76 70 67 64 60 58 59 59 57 52 43 34 29 27 25 22 20 19 18 16 16 15 15 15 15 15 15 15 16 16 17 19 19 18 17 16 14 12 10 10 9 8 8 8 7 7 7 7 6 6 6 6
99 101 100 95 87 83 81 81 87 94 98 99 100 101 102 101 102 102 101 100 100 100 100 100 100 100 100 99 100 101 101 97 93 88 82 75 70 68 65 61 60 60 58 54 46 37 32 30 27 24 22 21 20 17 16 16 16 16 16 16 16 16 16 17 18 19 20 19 18 17 15 13 11 10 9 9 8 8 8 8 8 7 7 6 6 6 6
100 100 96 88 81 81 87 93 98 98 96 95 100 103 102 101 102 101 100 100 100 100 100 100 100 99 100 100 100 101 100 95 89 85 80 74 70 68 64 60 61 61 58 51 42 34 30 28 26 24 22 21 19 17 17 17 16 17 17 17 17 17 17 18 20 21 21 20 18 16 14 12 11 9 9 9 9 9 9 9 8 8 8 7 7 6 6
100 97 91 84 84 90 98 101 100 99 96 96 100 102 101 100 101 100 100 100 100 99 100 100 99 99 100 100 99 101 101 95 87 83 79 76 73 70 65 62 62 62 57 48 39 32 28 25 24 23 22 20 18 17 17 17 17 18 18 18 18 19 20 21 22 22 21 19 17 15 13 11 10 9 9 9 9 9 9 10 9 9 8 8 8 7 6
99 93 88 86 91 98 101 99 97 99 99 98 99 101 101 100 100 100 100 100 100 100 100 100 99 100 100 98 97 100 102 96 88 84 83 79 75 70 66 64 65 63 54 43 35 30 28 25 23 22 21 20 18 17 17 18 18 18 19 19 20 21 23 23 23 22 21 19 16 14 12 10 9 9 10 10 10 10 10 10 10 10 9 9 8 8 7
88 82 82 87 94 98 97 95 97 101 103 100 100 101 101 99 100 100 100 100 100 100 100 100 100 100 100 97 96 100 101 96 90 88 87 84 78 71 67 65 64 60 50 39 31 28 28 28 25 22 20 19 18 18 18 19 19 19 20 21 23 24 24 24 24 22 20 18 15 12 11 10 10 10 11 11 11 11 10 10 9 9 8 8 8 8 7
75 71 71 76 81 86 90 95 99 102 102 101 100 100 100 100 100 100 99 99 100 100 100 100 100 100 100 99 99 100 100 97 94 92 89 85 81 76 70 66 62 55 45 36 30 27 27 28 26 23 20 19 19 20 20 20 20 21 22 23 25 26 25 25 24 22 19 16 13 11 10 10 10 11 12 12 11 10 9 8 8 8 7 7 7 7 7
Wind_Speed
28 28 29 30 31 32 33 33 32 31 30 29 29 28 28 28 29 31 31 31 31 31 32 31 30 29 28 28 29 28 26 25 24 23 23 22 21 20 18 19 19 20 20 21 20 19 19 20 21 20 19 19 19 19 18 18 18 18 18 17 17 18 21 22 22 19 16 14 15 16 17 19 20 19 17 15 13 15 16 16 17 18 18 21 27 29 26
29 29 30 30 31 32 34 34 33 31 29 28 27 27 28 28 28 27 28 29 31 31 32 32 31 28 27 27 27 25 24 25 25 24 23 22 22 21 19 19 19 20 21 21 21 19 18 19 20 20 19 18 19 19 18 17 16 16 17 17 16 17 19 19 20 21 18 14 14 15 16 19 20 19 18 17 16 18 19 19 20 16 11 16 25 22 19
29 30 30 30 31 32 34 34 33 32 31 29 27 27 27 28 28 26 26 27 29 30 32 33 31 27 26 26 26 24 23 24 25 25 24 23 22 21 19 19 18 18 20 21 21 20 18 17 18 19 19 18 19 19 18 18 15 14 15 15 14 15 16 17 19 21 21 18 17 16 16 16 17 16 17 17 17 19 21 23 25 20 13 18 24 20 15
30 31 31 31 31 32 33 33 31 30 31 30 29 28 28 28 27 28 29 30 31 31 31 30 28 25 24 25 25 23 22 24 25 25 25 24 23 21 19 18 18 18 19 20 22 22 20 17 16 17 17 18 18 18 17 18 16 14 14 14 13 14 15 15 17 18 19 18 17 17 18 19 20 20 20 19 20 21 21 24 26 24 22 21 17 18 19
30 31 32 31 32 32 32 31 30 29 29 30 31 29 29 29 28 28 30 31 32 32 32 30 27 23 23 25 25 23 22 23 25 25 25 24 23 21 19 18 17 17 18 19 20 21 22 19 17 16 17 17 19 19 18 17 16 15 14 13 12 14 15 14 15 16 17 18 18 16 16 18 19 21 23 23 23 24 23 25 24 21 26 25 13 18 26
31 32 32 32 32 32 31 30 30 29 29 30 31 30 29 29 29 29 30 31 31 31 32 30 26 22 22 23 24 24 23 23 25 26 25 24 23 22 20 18 17 16 17 19 20 20 22 21 18 16 16 16 17 20 19 17 16 16 15 14 13 13 15 14 14 16 18 18 19 19 18 18 18 20 24 26 26 26 25 25 24 21 26 30 24 18 26
32 33 33 33 32 31 30 29 30 30 29 29 30 30 29 29 29 30 31 31 30 28 29 29 24 21 21 23 23 22 22 23 25 25 24 24 23 22 20 19 18 17 16 17 19 20 20 21 20 17 17 16 15 18 19 17 16 17 16 16 14 14 15 15 14 14 17 18 18 19 21 21 21 22 23 25 27 27 27 26 25 26 26 28 33 33 24
33 33 33 32 31 29 29 29 30 30 29 29 29 29 28 28 30 31 31 31 28 25 26 26 23 20 21 22 22 22 21 22 24 25 24 23 23 23 21 19 18 18 17 17 19 20 20 20 20 18 18 17 15 16 17 17 16 16 17 17 17 16 16 17 16 13 15 18 18 19 22 22 23 24 24 25 27 27 27 27 27 28 28 28 34 39 33
32 31 31 30 29 29 29 30 30 30 29 29 28 28 27 27 29 30 30 30 27 25 25 25 23 22 21 21 22 23 22 22 23 25 24 23 23 23 22 21 20 19 18 17 18 20 20 20 20 18 18 17 16 15 16 17 16 16 16 17 18 18 17 19 18 15 15 18 18 19 21 21 22 24 24 25 27 27 27 27 26 29 30 32 35 38 38
30 29 29 29 29 29 29 30 30 30 30 29 27 27 26 27 28 28 28 28 27 25 25 25 25 24 23 22 23 23 23 23 22 23 24 23 24 23 21 21 21 19 19 19 19 20 21 21 20 19 18 17 16 15 16 17 17 16 16 17 18 20 19 20 20 17 16 18 19 19 19 18 21 24 24 25 27 27 27 26 26 28 31 34 36 36 38
29 29 30 30 30 30 30 30 30 30 30 28 27 27 26 26 26 27 27 27 27 26 26 25 24 24 23 23 23 23 23 24 22 22 23 23 24 24 21 20 21 20 19 19 20 21 21 21 21 20 18 17 16 15 15 17 17 17 17 16 17 18 20 21 22 19 16 16 17 18 18 18 20 21 21 24 27 26 26 27 27 27 29 33 35 34 36
30 31 32 33 32 31 30 30 30 29 28 27 26 27 26 26 26 27 28 28 27 27 27 26 24 23 23 23 23 23 23 25 24 22 22 23 24 24 22 20 20 20 20 20 20 20 21 21 21 20 19 18 16 15 15 16 17 18 18 17 16 17 18 20 21 19 16 14 16 17 17 18 20 21 22 25 29 28 27 28 28 27 28 32 34 34 35
33 34 36 36 34 32 31 31 30 29 26 25 26 26 26 26 27 28 29 29 28 27 26 26 25 24 24 23 23 23 23 24 25 23 22 22 23 23 22 20 20 19 20 20 20 20 21 21 20 20 19 17 16 16 16 15 16 18 18 17 16 16 17 18 20 20 18 15 16 18 19 19 20 23 25 28 30 30 30 30 31 30 30 32 35 36 36
36 37 38 37 35 33 32 32 31 28 25 24 25 26 26 27 27 28 29 29 28 27 26 26 25 25 24 22 22 22 23 25 25 23 22 22 22 23 22 20 19 19 19 20 20 20 20 20 20 19 19 17 16 16 16 14 15 17 17 17 16 15 16 18 19 20 20 17 16 17 18 20 22 24 26 28 31 32 32 32 32 31 32 34 35 37 37
38 38 38 37 35 34 33 33 31 27 24 24 25 25 26 26 27 28 28 28 28 27 25 25 25 24 23 22 22 22 22 25 24 22 23 23 21 22 22 20 19 19 19 19 20 21 20 20 19 19 18 18 17 16 17 15 15 16 16 16 16 15 15 18 19 19 19 19 19 18 18 21 24 25 26 27 30 32 32 33 33 32 33 35 35 36 38
39 38 37 36 35 34 34 34 31 26 24 24 24 24 25 25 26 27 28 28 29 27 25 24 24 23 21 21 21 21 21 23 23 22 23 23 23 24 24 21 19 19 20 19 19 20 20 19 19 18 18 19 17 16 17 16 15 16 16 15 15 15 15 18 20 19 19 19 19 20 20 22 25 27 28 28 29 31 32 32 31 31 33 34 34 37 39
39 38 37 36 35 34 34 33 30 26 23 23 24 23 23 23 25 27 27 28 29 27 25 24 23 22 20 20 21 21 22 23 23 22 23 23 22 23 23 22 20 20 20 20 20 20 20 19 19 18 18 19 17 15 15 15 14 15 16 15 16 17 17 18 18 18 19 21 21 21 22 23 26 29 30 31 31 31 32 31 29 29 32 34 35 36 38
40 39 39 37 36 35 35 33 29 24 21 22 23 22 22 23 24 26 27 28 29 27 24 23 24 22 21 21 21 22 23 24 24 24 25 25 25 24 23 22 23 21 20 20 21 20 19 19 20 19 18 20 19 16 14 15 16 16 16 16 17 17 17 18 17 17 19 21 21 21 23 24 27 30 31 33 32 30 30 31 31 31 33 35 36 36 38
40 40 39 37 36 35 34 31 27 22 20 21 21 21 22 23 24 25 26 27 28 27 24 23 23 22 21 21 22 23 25 26 26 26 26 26 26 27 24 22 22 23 22 21 21 20 19 19 20 20 19 20 20 17 15 16 17 17 18 18 17 17 17 18 18 17 19 21 21 21 23 25 26 28 31 32 31 29 28 29 31 33 34 35 35 35 37
39 38 37 35 34 33 31 29 24 21 19 19 20 21 23 24 24 25 25 26 27 27 25 23 22 21 21 21 23 24 26 27 27 27 27 25 23 25 25 22 21 21 21 21 22 21 19 19 20 21 20 21 21 19 17 16 17 18 19 19 18 17 18 19 20 20 20 21 22 22 23 26 27 27 28 30 31 32 31 29 29 32 34 35 34 34 36
36 34 33 32 31 30 29 26 23 20 19 18 19 20 22 24 24 25 25 26 27 26 25 23 22 21 21 23 24 25 26 26 26 27 26 23 21 21 24 24 23 22 21 21 22 21 20 19 20 21 21 21 21 21 18 17 17 18 19 21 20 19 18 19 21 22 21 21 22 22 23 27 30 30 30 31 32 33 32 30 28 29 32 34 34 33 34
32 30 30 29 28 27 26 24 21 20 18 17 18 21 22 22 23 23 23 24 26 27 25 23 21 20 22 24 25 25 25 26 27 26 25 22 20 20 22 24 23 23 22 22 22 21 20 20 21 20 20 21 21 21 20 19 18 19 20 23 22 20 20 21 22 22 23 24 24 24 25 28 32 32 32 32 32 32 32 31 30 29 31 34 35 33 34
29 27 27 26 26 25 24 22 21 20 18 17 19 21 22 22 22 22 21 21 22 26 26 24 21 21 23 24 24 24 25 27 27 26 22 20 19 20 22 24 24 22 21 21 22 21 20 21 22 21 21 21 20 20 21 21 21 20 20 22 22 21 22 23 23 23 24 26 28 28 28 31 34 34 33 33 32 32 31 30 29 29 30 33 36 35 34
27 26 25 25 25 24 22 21 21 20 19 19 20 21 21 23 24 23 21 20 20 23 26 26 25 23 23 24 23 24 25 27 27 25 22 20 20 21 22 23 23 23 22 21 22 21 20 20 21 21 21 21 21 21 22 22 22 21 20 21 22 22 22 23 23 24 26 27 29 30 30 32 34 34 34 34 33 33 33 32 31 31 31 33 35 35 33
27 26 25 25 24 23 22 21 21 21 20 20 21 22 23 25 26 26 24 23 22 22 25 28 28 25 23 24 25 26 26 26 25 24 21 20 21 23 23 23 23 23 22 22 22 21 21 21 21 20 20 20 21 22 23 22 22 23 22 23 22 21 22 24 26 27 28 29 31 31 31 34 36 37 36 35 34 35 35 34 34 33 33 33 35 35 34
27 26 25 23 23 23 23 22 22 23 23 22 23 24 25 27 28 27 26 26 25 24 24 27 28 26 24 25 27 27 27 26 25 23 21 20 21 22 23 23 23 23 23 23 23 22 22 22 22 20 20 20 21 22 23 23 23 24 24 24 23 22 23 26 27 28 29 30 30 30 29 30 34 35 36 35 35 34 35 34 33 33 32 32 33 33 34
27 25 24 23 23 23 23 23 23 24 24 24 24 25 27 30 30 28 27 27 27 25 25 26 28 27 25 24 26 26 26 26 25 23 22 21 21 23 23 23 22 23 23 23 23 23 23 23 23 21 20 20 21 22 23 23 24 25 25 25 25 25 26 27 28 30 31 30 30 31 30 29 30 32 33 34 33 33 34 34 33 32 31 30 30 30 30
26 25 24 24 25 24 24 24 25 26 26 26 26 27 29 31 31 29 29 29 29 28 26 27 29 29 26 24 25 25 25 25 25 24 22 22 23 23 23 22 22 22 23 23 23 24 24 24 24 24 23 21 20 21 22 24 24 25 25 26 26 26 26 28 29 30 31 31 31 32 33 32 32 33 34 35 35 33 33 34 33 32 31 30 30 30 28
26 25 25 25 25 24 24 25 27 28 28 28 27 27 29 31 32 32 31 32 32 31 29 28 29 30 28 26 26 26 25 25 24 24 23 23 23 23 22 21 21 21 22 23 23 24 24 24 25 25 24 23 21 21 22 23 24 26 26 26 26 26 27 28 30 30 31 31 31 33 34 34 35 36 36 37 37 35 34 34 33 32 31 30 29 30 28
25 25 25 25 25 24 26 28 29 30 30 28 27 28 30 32 34 34 34 34 35 34 30 28 29 30 29 28 27 26 25 24 24 24 24 24 24 22 21 21 21 21 22 23 23 24 24 24 24 25 25 23 22 22 22 23 24 25 26 26 27 27 28 29 30 31 31 31 32 34 35 36 37 38 38 38 38 37 35 34 32 31 30 29 29 28 27
24 25 25 25 25 26 27 29 30 30 29 29 29 31 33 34 35 34 34 34 35 35 32 30 30 30 30 29 27 26 24 24 24 24 24 25 24 22 21 21 21 22 24 24 23 24 25 24 23 25 25 24 22 22 23 24 24 25 26 26 26 27 28 30 31 32 32 33 34 35 37 38 39 40 40 39 38 37 36 35 33 32 30 29 29 29 27
26 27 26 25 24 25 27 28 29 30 31 32 33 35 37 38 37 34 34 35 36 35 33 31 29 29 30 29 26 24 24 24 24 23 24 24 24 21 20 21 23 23 24 25 25 25 26 25 25 25 26 25 23 23 24 24 25 25 27 27 27 28 29 31 32 33 34 35 35 36 38 39 40 41 41 40 38 36 35 33 32 32 31 30 29 29 29
29 28 27 26 26 28 30 31 33 33 34 35 36 36 38 39 38 36 36 37 37 35 33 32 30 29 29 29 26 23 23 25 24 23 23 23 23 21 20 22 24 24 24 25 26 26 27 27 26 25 26 26 25 24 24 26 26 25 26 28 28 28 30 32 33 34 35 36 37 38 38 38 39 39 40 40 38 36 34 32 30 29 29 30 30 29 30
29 29 29 30 31 33 35 36 36 36 35 34 33 34 36 39 39 38 38 38 37 35 33 32 30 28 28 29 26 23 23 25 25 24 22 21 22 22 22 22 23 24 25 26 27 28 29 29 27 26 25 25 24 23 24 26 27 26 27 29 29 29 31 32 33 35 36 36 37 38 38 38 38 38 38 39 38 37 34 32 30 28 27 28 29 30 30
31 32 32 33 35 37 38 38 37 35 34 33 32 34 37 40 40 41 40 38 37 36 33 30 29 28 28 27 25 23 23 25 26 24 23 21 20 22 24 24 23 24 24 26 28 29 30 30 28 26 25 24 23 23 24 26 28 28 28 29 30 31 33 33 34 35 36 37 37 38 38 38 38 38 38 38 37 37 35 33 31 29 27 27 27 28 30
34 34 33 35 37 39 38 37 35 34 33 33 34 36 39 41 41 42 41 38 37 36 32 27 26 27 28 26 24 23 23 25 25 24 24 23 22 22 24 25 25 25 25 26 29 31 32 32 30 27 24 22 22 24 25 27 28 29 29 30 31 33 34 34 34 35 36 37 38 38 38 38 38 37 37 37 36 36 35 34 33 31 28 27 27 27 28
35 34 35 37 39 40 38 36 34 33 33 34 36 38 39 40 41 42 41 39 36 34 29 24 24 26 26 24 23 23 24 25 25 24 23 24 24 24 24 25 26 27 27 28 30 31 32 31 29 27 25 23 23 25 27 28 29 29 30 32 33 34 35 35 35 36 36 37 38 39 39 38 38 38 37 37 37 36 35 34 33 32 30 28 27 27 28
36 37 39 40 39 38 36 33 32 32 33 35 36 37 38 39 40 40 40 38 34 29 25 23 25 26 25 23 23 24 24 25 25 24 24 24 24 25 26 27 29 30 29 30 32 34 33 30 28 27 25 23 24 26 29 30 30 31 32 33 35 35 36 36 36 37 38 38 38 39 39 38 38 38 37 37 37 38 37 36 35 34 32 30 27 26 26
38 40 40 40 38 35 32 30 29 31 32 33 35 37 38 38 38 39 38 35 30 27 24 24 26 26 24 23 24 24 24 25 25 24 24 26 26 26 27 29 32 33 32 32 34 36 34 31 30 29 26 23 23 27 30 31 31 32 34 34 35 36 37 37 38 38 39 40 40 40 39 38 38 37 36 35 35 36 37 37 37 36 35 33 30 28 26
40 40 40 38 35 31 28 27 28 30 31 33 35 37 38 38 38 37 35 31 28 27 26 25 26 26 24 24 25 25 24 25 24 24 24 26 26 26 26 29 32 35 34 33 35 36 33 29 30 30 28 25 25 29 31 31 31 33 34 34 35 37 38 38 39 39 40 40 41 41 40 39 38 38 37 35 34 33 34 35 36 36 37 36 35 32 29
39 38 35 33 32 30 28 28 29 31 33 34 36 37 38 38 37 34 30 26 25 26 26 25 25 26 26 25 26 26 24 24 24 24 24 26 26 26 26 28 31 34 34 34 35 36 34 30 30 29 28 28 29 31 32 32 33 34 34 35 36 37 38 39 39 40 40 41 41 40 40 40 39 38 38 37 36 34 33 33 34 34 36 37 36 36 34
34 31 30 31 32 32 32 32 32 33 35 37 38 38 38 36 34 29 26 25 26 27 26 24 25 27 28 26 26 27 25 23 24 24 24 25 27 27 27 28 30 33 35 35 34 34 33 32 30 28 28 30 32 33 33 34 35 35 36 36 37 37 38 39 40 40 41 41 41 40 40 39 39 38 37 37 36 35 34 34 33 33 34 35 36 36 36
30 30 32 34 36 36 35 35 35 36 36 36 36 36 35 35 32 29 27 28 29 30 29 27 26 28 29 27 26 27 25 24 24 24 24 25 27 28 29 30 31 33 35 35 34 33 33 32 30 28 28 31 33 34 34 35 36 36 37 37 38 38 39 39 40 40 41 41 41 40 39 39 38 38 37 36 35 34 34 34 33 33 33 34 35 36 36
32 33 34 36 36 36 36 36 36 37 37 35 33 33 33 33 32 30 31 33 34 34 33 30 29 30 30 28 27 26 25 24 24 24 24 25 27 28 30 32 33 34 35 35 34 33 34 32 29 28 30 32 33 34 35 36 36 37 37 38 38 38 39 40 40 40 40 40 40 40 39 38 38 37 37 36 35 34 33 33 33 33 32 33 34 35 35
34 34 35 35 36 36 36 36 36 36 34 32 30 30 31 31 30 30 32 35 37 35 33 32 32 33 32 29 27 26 26 25 24 23 24 26 28 29 30 32 33 34 35 34 32 33 33 31 29 29 32 33 34 35 36 36 37 37 37 38 38 39 39 39 40 40 39 40 39 39 39 38 38 37 36 36 35 34 33 32 32 32 32 32 32 33 34
33 34 33 34 35 36 36 36 34 32 30 29 28 29 29 30 30 30 32 34 34 33 33 34 35 34 32 30 27 26 26 25 24 23 25 27 28 29 31 33 34 35 34 33 32 32 31 29 29 31 33 34 35 36 37 37 37 37 37 38 38 39 39 39 39 39 39 39 39 39 39 38 37 37 36 36 35 34 34 33 32 31 31 31 31 32 33
30 31 32 33 35 36 35 34 32 30 29 29 28 28 28 27 28 30 32 32 32 33 35 36 35 34 31 28 27 26 25 25 24 24 25 27 29 30 31 33 34 34 34 33 33 32 30 29 30 32 33 35 36 37 37 37 37 37 37 38 38 38 39 39 39 39 39 39 39 39 39 38 38 37 36 35 35 34 33 33 32 32 31 31 31 31 31
29 30 31 33 35 35 34 32 31 30 30 29 28 28 28 28 28 30 32 33 33 35 36 35 34 32 29 26 26 25 25 25 26 26 27 28 30 31 32 34 34 33 33 34 34 32 29 29 31 33 34 35 36 37 37 37 37 37 37 38 38 38 39 38 38 38 38 38 39 39 38 38 38 37 36 35 35 34 33 33 32 32 31 31 31 30 30
32 31 31 32 34 34 34 33 32 31 31 31 30 31 32 32 32 33 34 35 36 35 35 34 32 30 27 25 25 25 25 26 27 28 28 29 31 32 34 35 34 33 34 35 34 31 30 31 32 33 34 36 37 37 37 37 37 37 37 38 38 38 38 38 38 38 38 38 38 38 38 37 37 37 36 36 35 34 34 33 33 32 32 31 31 30 30
38 37 35 33 33 33 35 35 34 32 32 32 32 31 32 33 33 33 35 36 35 35 34 32 29 26 25 26 26 25 26 27 29 29 29 30 32 34 35 35 33 33 35 35 32 30 31 33 33 34 35 36 36 37 37 37 37 37 37 37 37 37 37 37 38 38 38 38 37 37 37 37 36 36 36 36 35 35 35 35 34 33 33 33 32 31 31
41 41 38 35 33 34 35 36 35 33 32 32 32 31 31 31 31 32 33 34 34 33 31 28 26 25 26 27 26 26 27 29 30 29 30 31 33 35 36 35 33 34 35 34 32 31 32 33 34 35 36 36 36 37 37 37 37 37 37 37 37 37 37 37 37 37 38 38 38 37 37 37 36 36 37 37 37 37 37 37 36 36 35 34 34 33 32
42 41 39 38 36 35 36 35 34 32 32 32 32 31 30 30 31 32 33 34 33 30 28 26 26 27 27 27 26 28 30 31 30 30 31 32 34 36 37 36 35 34 34 33 32 32 32 33 34 35 36 36 36 37 37 37 37 37 37 36 36 36 37 37 37 37 38 38 38 38 38 37 37 37 38 39 39 39 39 39 38 37 36 35 34 34 33
Wind_Direction
306 308 309 311 313 315 315 317 320 322 321 322 323 323 324 325 324 324 324 326 327 328 328 331 333 332 333 337 341 342 341 342 346 351 354 352 350 350 348 347 349 350 350 348 345 342 340 342 346 347 343 334 331 335 335 336 341 345 349 354 353 352 359 7 9 5 354 336 327 326 323 317 318 319 311 303 302 298 294 296 293 283 283 279 270 277 293
304 306 307 309 311 312 313 314 317 319 319 319 319 319 320 322 322 322 321 323 325 327 327 330 331 330 330 333 339 342 340 340 343 348 353 353 351 351 349 347 347 348 348 346 345 342 339 338 341 345 345 336 328 329 331 333 340 344 346 352 351 348 356 6 11 15 12 357 343 338 329 322 321 319 311 305 300 293 294 295 291 294 309 288 275 289 313
302 304 306 308 309 310 310 312 315 317 317 317 317 317 318 320 322 322 321 322 325 327 328 329 328 327 326 330 337 341 340 339 342 346 351 353 351 350 348 346 346 346 345 344 343 342 339 336 336 341 344 338 328 327 327 329 339 345 343 348 348 344 352 360 4 12 18 16 11 10 10 3 356 353 344 333 321 309 303 300 297 300 302 280 280 302 315
301 302 305 307 308 308 309 312 315 315 315 317 318 318 319 320 323 323 322 323 324 325 327 327 324 322 323 327 333 338 339 340 341 344 348 350 350 349 348 345 343 344 344 342 341 341 339 336 333 336 342 339 331 329 328 325 330 339 342 344 343 339 347 355 357 3 12 16 14 14 19 21 20 19 13 4 354 345 335 327 321 309 299 296 291 292 295
299 301 303 305 307 308 312 315 316 315 316 317 318 319 319 319 320 320 319 320 322 324 327 327 323 320 320 325 331 335 338 340 341 343 344 347 347 347 347 346 342 341 341 340 341 339 336 335 333 331 336 340 335 332 331 325 323 330 336 340 339 334 339 348 349 352 1 6 2 357 357 3 10 16 14 10 4 0 356 350 342 321 314 331 332 269 274
298 300 301 303 306 309 314 318 318 317 316 316 317 318 318 318 319 319 318 319 321 323 325 325 321 317 318 323 329 333 336 340 342 341 341 344 346 344 345 345 343 341 339 338 339 338 335 333 331 328 330 336 335 332 332 329 322 322 325 332 337 333 329 335 340 344 351 356 354 348 345 344 350 358 2 4 3 358 356 356 354 341 333 344 350 307 280
297 299 300 303 306 309 314 317 317 316 315 315 315 316 316 316 317 317 316 317 320 322 324 323 319 315 317 320 326 333 336 339 342 341 339 342 345 344 343 343 341 341 340 337 336 337 335 331 330 327 326 330 332 329 329 329 322 318 318 323 330 329 322 323 331 336 340 345 345 344 344 342 341 343 347 355 0 356 353 356 358 354 347 346 351 349 329
298 300 302 305 307 309 312 315 315 313 313 313 313 313 313 313 315 316 317 319 320 322 325 323 316 313 315 316 323 333 338 337 340 341 340 341 343 343 341 340 340 339 340 339 336 335 334 330 328 327 324 325 327 327 328 328 323 319 317 318 324 327 322 318 321 324 327 332 336 340 344 343 340 339 337 340 349 352 350 354 357 355 350 346 348 353 351
300 302 305 308 308 309 311 312 312 311 310 311 311 310 311 312 314 316 319 320 321 323 326 325 318 313 313 313 319 330 337 338 339 340 339 340 342 343 341 338 338 338 339 339 337 335 333 330 328 326 324 322 320 322 327 329 328 324 320 319 320 322 320 316 317 322 323 325 330 334 339 341 336 335 334 334 338 345 347 350 354 353 350 352 354 353 353
299 303 306 308 309 310 310 310 309 309 309 309 308 307 308 311 313 317 320 321 322 322 323 323 319 313 311 311 315 324 333 336 337 337 337 339 342 343 341 336 334 336 338 339 337 335 331 329 328 325 324 322 317 319 325 327 330 330 324 321 319 318 319 318 321 327 327 323 325 327 332 339 334 326 325 327 332 339 341 343 351 356 353 354 354 350 351
297 301 304 307 309 310 308 307 307 307 308 308 306 306 308 310 312 316 319 320 322 323 322 322 320 313 308 309 312 317 326 332 333 334 336 337 340 342 340 336 333 334 337 338 337 335 331 328 327 326 324 322 317 318 323 325 328 331 328 323 320 320 322 323 324 331 330 321 322 325 328 335 331 316 309 317 325 332 338 339 346 354 354 351 347 344 349
295 299 301 304 307 308 306 304 303 305 306 305 304 305 308 309 310 313 316 317 320 322 323 323 322 314 306 307 310 313 320 328 331 332 334 336 338 341 340 336 333 333 335 336 335 334 330 326 325 325 324 323 321 318 320 323 324 326 328 324 322 326 329 328 326 329 331 327 324 325 325 328 324 310 303 312 319 324 332 336 337 341 344 344 342 341 347
294 297 300 300 302 305 305 301 300 302 302 300 301 303 305 307 309 311 313 315 318 321 322 323 322 317 309 307 307 309 315 325 328 329 331 333 335 339 339 336 332 331 331 333 334 332 329 325 324 324 322 322 320 316 317 320 319 320 324 325 327 330 331 328 325 324 328 330 327 325 324 321 314 307 306 311 314 319 327 333 334 336 335 335 338 342 345
293 296 298 298 297 300 302 299 298 299 297 295 298 301 303 305 308 310 311 314 317 320 322 323 322 319 312 307 305 307 314 323 326 326 327 330 333 337 338 333 330 330 329 330 332 330 327 324 321 321 320 316 313 310 310 312 316 317 320 325 330 331 325 320 320 321 321 322 320 320 321 317 310 308 308 309 311 318 325 328 329 332 330 327 333 341 344
291 294 296 296 294 296 299 298 296 295 293 293 296 299 301 305 308 309 312 314 316 319 322 322 321 319 314 308 306 309 315 323 326 326 326 328 332 335 335 332 328 328 329 330 331 329 326 324 320 319 316 311 308 307 306 308 312 312 312 319 323 323 319 315 313 314 314 315 315 312 309 307 305 307 309 310 311 316 320 322 324 325 323 322 330 338 342
289 291 293 293 293 294 296 296 295 292 289 291 296 298 301 306 309 311 314 315 316 319 321 320 319 318 313 308 306 310 317 324 327 327 325 327 330 332 333 332 329 327 328 330 331 329 325 323 321 317 311 307 306 306 306 308 309 306 308 314 314 313 316 312 309 309 308 309 312 309 304 303 303 304 307 308 311 314 316 317 319 318 316 319 330 339 341
287 287 289 290 292 293 294 293 291 288 287 291 296 298 302 307 311 313 315 315 316 318 320 318 316 316 313 309 308 310 318 324 328 326 323 324 326 327 329 328 326 327 330 329 330 330 325 320 319 315 310 308 309 309 306 305 303 300 302 306 306 308 312 310 309 310 306 305 309 306 301 300 300 301 304 305 308 312 314 314 314 314 317 324 332 338 339
284 285 287 288 290 292 292 290 287 284 286 291 295 298 302 308 312 314 315 316 316 318 319 316 313 314 314 312 310 312 317 323 325 323 322 321 321 322 326 327 326 329 331 328 328 329 325 320 319 318 314 311 312 313 307 302 300 298 297 298 298 299 303 306 309 310 307 306 307 303 299 299 299 299 302 303 305 309 310 312 314 317 321 327 331 335 337
284 286 287 286 288 290 288 285 282 282 286 290 293 299 304 307 311 313 315 315 315 316 317 315 312 313 314 313 312 313 316 319 321 320 320 320 318 319 323 326 326 327 328 326 326 328 327 322 319 319 317 313 313 315 310 302 300 299 296 294 293 294 298 301 304 308 310 309 306 302 300 299 298 300 303 305 308 310 310 312 316 319 322 324 327 332 334
286 286 285 284 285 286 283 280 279 282 285 288 292 300 305 307 310 313 314 315 315 315 315 314 313 314 315 314 314 314 315 318 320 320 320 318 316 317 321 324 324 323 324 324 324 326 327 323 319 318 317 313 312 313 310 303 300 300 297 296 296 299 300 299 301 307 310 308 306 306 304 299 298 303 306 307 308 310 312 315 316 317 319 320 324 329 331
285 284 283 282 282 280 276 274 277 282 285 288 293 299 304 308 311 314 315 316 316 315 313 313 312 313 314 315 315 316 318 320 321 322 321 320 318 319 320 323 324 324 324 324 323 324 325 322 319 318 315 311 310 310 308 303 299 297 295 295 297 300 299 299 302 305 306 307 310 312 310 305 307 311 312 311 311 312 314 316 316 315 315 315 320 328 329
282 282 281 279 277 273 270 271 276 281 285 290 295 299 304 308 310 313 317 318 317 314 312 311 310 310 311 313 314 316 318 320 322 322 321 319 319 321 321 321 323 324 323 322 321 322 323 320 318 317 313 309 308 307 305 303 300 297 296 296 299 300 297 298 301 302 303 306 308 308 307 306 309 312 313 313 314 313 314 317 316 315 315 314 319 326 327
277 278 276 273 270 267 265 267 274 280 286 292 295 297 301 306 308 312 315 315 314 312 311 310 308 307 309 311 313 315 317 319 320 320 319 316 317 321 321 320 321 321 321 320 319 320 320 318 317 316 312 309 307 304 302 302 300 299 298 297 301 304 302 300 300 300 301 304 304 306 309 309 308 311 312 313 314 314 314 316 316 314 313 313 316 322 325
271 271 269 266 264 261 261 265 272 280 287 291 293 295 299 304 307 310 313 312 311 312 312 309 305 305 307 309 311 314 317 318 319 318 316 315 318 321 321 320 319 319 319 318 317 318 318 316 316 314 310 309 307 302 300 301 301 301 300 298 301 306 304 301 300 300 301 301 303 306 309 308 307 308 311 313 316 317 317 319 319 317 314 313 314 316 319
265 264 263 262 260 257 258 264 271 277 283 288 290 293 298 303 306 309 312 313 313 313 313 309 305 305 307 308 311 316 318 318 318 316 315 316 319 321 321 320 319 318 318 318 317 317 316 315 315 313 308 306 304 301 300 300 300 301 302 302 302 302 298 297 299 302 301 301 303 306 308 308 308 310 313 316 318 318 318 318 318 316 313 312 311 311 313
262 260 258 255 253 254 258 263 268 274 282 287 289 292 296 300 304 308 311 313 314 314 314 312 308 308 310 310 313 317 319 318 318 317 315 316 318 320 321 321 320 319 318 317 317 317 316 316 316 313 307 305 303 299 299 301 301 302 304 305 304 302 298 298 300 301 300 301 303 304 305 305 305 307 310 312 313 313 312 312 312 310 309 308 306 306 307
257 254 250 248 250 255 259 263 268 276 283 288 289 290 292 297 302 307 309 311 312 312 313 312 308 307 309 310 313 316 317 318 318 317 316 316 318 320 321 321 319 318 317 316 317 318 317 317 317 313 308 305 303 299 299 301 302 303 304 305 304 304 303 302 302 301 302 303 305 304 302 300 299 300 302 303 305 306 306 306 306 305 304 304 301 299 300
251 247 244 246 252 258 261 266 272 279 284 286 287 288 290 295 300 304 306 308 308 308 309 310 308 308 309 311 313 315 317 317 317 317 316 316 318 319 319 318 316 315 316 316 317 317 317 317 317 314 310 307 304 300 301 302 302 303 304 305 306 306 305 303 302 302 303 305 305 304 304 304 302 302 303 303 304 305 305 303 303 301 300 301 300 297 296
247 244 245 250 255 260 266 272 276 279 283 286 286 286 290 295 299 303 306 306 304 302 303 305 306 307 309 312 313 314 316 317 316 316 316 315 316 317 316 315 314 314 315 316 316 316 316 317 316 313 310 309 307 303 301 302 302 303 305 307 308 308 306 304 303 303 305 307 306 305 305 305 305 305 306 306 307 307 305 302 300 298 297 297 297 298 298
247 245 248 253 259 264 270 275 277 280 284 285 285 288 294 296 297 300 304 305 304 302 301 301 302 303 306 310 310 310 313 314 313 314 314 314 314 315 315 314 315 315 316 316 315 314 315 316 315 311 309 309 308 304 302 302 303 304 305 307 308 308 307 306 306 307 308 308 308 307 306 306 307 307 307 308 307 306 305 303 300 298 296 293 292 295 300
249 250 254 258 263 268 271 273 274 277 280 283 287 293 297 296 294 297 300 302 303 303 301 298 298 300 304 308 309 308 309 310 311 313 314 313 313 315 316 315 316 316 316 315 315 315 315 316 314 311 310 309 306 304 304 304 304 306 307 308 309 309 308 308 309 310 310 309 308 307 307 307 308 308 307 307 307 306 305 305 303 300 297 293 290 291 295
251 254 258 262 264 266 267 268 270 274 280 287 294 297 297 294 293 296 298 300 303 304 300 297 296 298 302 306 308 306 305 307 310 313 313 312 311 313 315 315 315 316 316 315 316 317 317 316 315 313 312 311 308 306 307 306 306 307 308 309 310 310 309 310 310 310 309 309 308 307 306 305 305 306 306 306 306 305 303 303 301 299 297 294 290 288 289
252 255 258 260 261 263 266 269 273 280 287 292 295 294 292 291 292 295 297 300 304 305 301 296 296 297 299 303 306 305 303 305 309 313 313 311 310 312 314 314 314 316 317 316 316 318 318 317 316 315 312 310 309 308 308 308 308 309 308 309 311 311 309 309 309 308 307 307 307 306 306 305 303 303 303 304 304 304 302 300 298 296 295 292 289 286 285
254 256 259 261 264 266 269 272 278 285 289 289 287 285 283 285 289 293 295 298 302 304 301 296 294 296 298 300 303 303 302 304 309 312 311 309 308 310 312 313 313 316 318 316 316 317 317 316 316 315 310 308 308 308 307 308 309 310 308 308 309 310 308 307 307 306 306 306 306 306 307 307 306 305 303 303 303 303 303 301 297 294 292 290 287 285 282
258 261 264 267 268 270 272 276 282 284 284 282 279 279 280 283 287 290 293 296 300 302 300 294 292 293 296 297 299 300 301 304 309 311 309 305 305 307 310 312 313 315 317 316 315 315 316 315 315 314 310 306 307 307 306 307 308 309 309 309 309 308 307 307 307 306 306 307 307 307 307 307 306 306 304 303 303 303 302 301 298 295 292 289 286 284 281
263 266 269 270 270 272 275 279 281 281 280 279 279 279 281 284 286 289 291 295 299 300 296 291 290 292 295 296 296 297 300 304 308 308 306 305 306 307 309 312 313 314 317 316 315 315 316 316 316 313 309 306 307 307 307 306 307 308 309 309 309 308 308 309 309 308 308 308 308 308 308 307 306 305 304 302 302 301 300 299 298 296 293 290 288 285 281
265 267 268 268 270 273 276 279 280 280 279 279 279 279 280 281 283 285 288 292 296 296 292 289 291 294 294 295 294 296 300 304 306 304 302 302 305 308 309 310 310 313 316 317 315 315 316 316 314 310 308 308 309 308 307 306 307 309 310 309 310 310 311 311 311 310 308 308 308 308 308 308 307 306 305 303 302 301 299 298 296 294 292 290 287 285 283
265 265 266 268 271 275 278 279 279 278 277 276 276 277 277 278 279 281 285 290 293 290 286 287 293 295 295 294 293 295 299 303 303 301 300 301 304 307 310 310 311 313 318 319 316 315 317 316 312 306 306 310 311 307 306 308 309 310 310 310 311 311 311 311 311 310 309 309 309 309 308 308 307 306 304 303 301 300 299 299 296 294 292 289 286 283 281
264 265 267 270 273 275 277 278 277 275 274 274 274 273 273 275 277 279 283 288 289 286 283 285 290 294 295 293 291 292 297 299 299 297 299 301 304 307 310 312 312 315 319 320 316 315 317 316 311 307 308 312 311 305 305 308 310 310 310 311 311 311 311 311 311 311 311 311 311 310 310 308 307 305 303 300 298 296 295 296 295 294 292 291 288 284 280
263 265 267 269 271 272 274 274 274 274 274 273 271 270 271 272 274 278 285 289 287 283 281 281 286 293 295 292 289 291 294 295 294 295 296 299 302 306 309 310 311 314 318 318 314 314 315 313 307 306 309 311 307 303 305 308 309 308 309 310 310 310 311 311 311 311 311 312 312 312 311 310 308 307 305 303 300 296 293 291 291 290 289 289 288 286 283
262 264 267 269 271 273 274 274 274 273 272 270 269 269 269 270 273 278 285 289 286 281 277 277 285 294 296 292 288 289 291 290 290 292 294 296 300 304 306 308 309 312 314 313 311 312 313 309 304 305 308 307 304 305 307 309 309 309 310 310 311 311 312 312 312 312 312 312 313 312 312 311 310 308 307 306 303 300 296 292 289 287 285 284 285 284 283
260 263 266 268 270 272 273 275 275 274 272 270 269 269 270 272 274 277 281 285 287 284 278 276 285 293 295 291 287 286 287 287 288 289 292 294 298 302 305 307 309 310 311 311 310 309 307 305 305 307 307 305 305 308 309 309 309 310 311 311 312 313 312 312 312 313 313 314 314 313 312 312 311 309 308 306 304 302 299 296 291 287 284 282 280 280 280
258 259 261 262 263 265 267 271 274 275 274 274 275 276 277 276 275 274 276 282 286 286 282 280 284 291 293 288 283 282 284 285 286 288 291 293 297 302 306 308 309 309 309 309 309 306 303 303 306 307 305 304 305 308 309 309 309 310 311 312 313 313 313 313 314 314 314 314 313 313 312 312 311 310 309 308 306 304 301 298 295 291 286 282 279 277 276
253 256 258 259 260 261 264 269 272 275 276 279 281 283 282 278 274 272 274 275 276 279 282 281 284 289 290 284 278 278 281 281 283 287 290 293 297 303 306 308 309 309 308 308 307 304 303 304 306 305 303 304 306 307 307 308 310 311 311 312 313 313 314 314 314 314 314 313 313 314 314 313 313 312 311 310 308 307 304 301 298 294 290 285 281 277 275
250 253 255 257 257 259 263 268 272 276 279 282 283 284 283 279 274 272 271 270 270 274 277 279 281 286 287 280 274 275 277 278 281 285 289 294 299 303 306 308 309 308 307 307 304 301 302 305 306 304 303 305 307 307 308 309 310 311 312 312 313 314 314 315 315 314 314 314 314 314 314 314 313 313 312 311 310 308 306 304 300 297 293 289 284 280 276
249 251 252 253 256 259 263 269 275 279 280 280 281 282 282 279 275 272 271 270 270 271 273 276 280 284 282 275 270 270 273 276 280 284 288 294 300 303 306 308 309 308 307 306 302 300 302 304 303 303 304 306 307 307 308 309 310 311 312 313 313 314 314 314 315 315 315 315 315 315 314 314 314 314 313 313 312 310 309 307 304 301 297 293 288 283 278
250 251 251 253 256 260 264 270 277 279 276 275 278 281 282 280 276 273 271 270 269 268 270 274 279 281 277 270 265 267 271 276 280 285 289 295 299 303 306 308 309 308 307 304 301 301 304 304 302 302 305 306 306 307 309 310 310 311 312 313 313 314 315 315 315 316 316 315 315 315 315 315 315 314 314 313 312 311 310 308 306 304 301 297 293 288 282
250 251 253 255 258 261 265 270 273 274 273 275 278 280 281 280 277 273 270 269 268 269 271 274 276 274 269 263 262 268 273 277 281 285 291 296 300 304 306 308 309 308 305 302 302 304 303 301 301 303 305 305 306 308 309 310 310 311 312 313 313 314 315 315 316 316 315 315 315 315 315 315 314 314 314 313 313 312 311 309 308 306 303 300 297 293 287
253 254 256 258 261 264 266 268 268 270 273 276 278 278 277 276 274 271 269 269 269 270 272 272 271 266 260 258 264 271 275 278 282 287 292 297 301 304 306 308 310 307 302 301 304 305 301 300 301 304 305 306 307 308 309 310 311 312 312 313 314 315 315 316 315 315 315 315 315 314 314 314 314 314 314 314 313 313 312 311 309 308 305 303 300 296 292
257 257 258 260 262 265 266 267 267 269 272 274 275 274 273 272 270 269 268 267 268 268 267 266 262 257 255 260 267 273 275 277 282 287 293 297 301 303 305 308 308 304 301 303 305 302 300 300 303 304 305 306 308 308 309 310 311 312 313 314 314 315 315 314 314 314 315 315 315 314 314 314 314 314 314 314 314 313 312 311 310 309 307 304 301 298 295
256 258 259 260 261 263 265 267 268 269 270 270 270 270 270 270 270 268 267 266 265 264 261 257 253 251 256 263 270 273 275 277 282 287 292 297 300 302 305 308 307 303 301 303 302 299 299 302 303 304 305 307 307 308 309 310 311 312 313 314 314 314 314 314 314 315 315 315 314 314 314 315 315 315 315 315 315 314 313 312 311 309 307 304 302 298 295
255 258 260 261 261 261 263 265 267 268 267 266 266 266 267 269 269 268 268 267 264 258 253 250 250 254 260 267 270 272 274 278 283 288 292 296 299 301 304 307 307 303 301 300 298 297 299 302 303 304 306 307 307 308 310 310 311 312 313 313 313 314 314 314 315 316 315 315 315 315 315 315 316 316 316 316 315 315 314 313 312 310 308 306 303 299 295